Time,TemperatureF,DewpointF,PressureIn,WindDirection,WindDirectionDegrees,WindSpeedMPH,WindSpeedGustMPH,Humidity,HourlyPrecipIn,Conditions,Clouds,dailyrainin,SoftwareType,DateUTC
2013-07-03 00:01:00,65.0,64.0,29.99,WNW,297,1.0,5.0,97,0.00,,,0.33,,2013-07-03 04:01:00,
2013-07-03 00:22:00,65.0,64.0,29.99,NE,56,0.0,4.0,97,0.00,,,0.33,,2013-07-03 04:22:00,
2013-07-03 00:43:00,65.0,64.0,29.99,NE,54,1.0,4.0,97,0.00,,,0.33,,2013-07-03 04:43:00,
2013-07-03 00:52:00,65.0,64.0,29.99,NE,54,1.0,4.0,97,0.00,,,0.33,,2013-07-03 04:52:00,
2013-07-03 01:02:00,65.0,64.0,29.98,East,86,1.0,3.0,97,0.00,,,0.33,,2013-07-03 05:02:00,
2013-07-03 01:11:00,65.0,64.0,29.98,East,86,1.0,3.0,97,0.00,,,0.33,,2013-07-03 05:11:00,
2013-07-03 01:23:00,65.0,64.0,29.99,ENE,62,0.0,3.0,97,0.00,,,0.33,,2013-07-03 05:23:00,
2013-07-03 01:47:00,65.0,64.0,30.00,ENE,62,0.0,2.0,97,0.00,,,0.33,,2013-07-03 05:47:00,
2013-07-03 01:56:00,65.0,64.0,30.00,ENE,62,0.0,2.0,97,0.00,,,0.33,,2013-07-03 05:56:00,
2013-07-03 02:14:00,65.0,64.0,30.00,WSW,242,0.0,6.0,97,0.00,,,0.33,,2013-07-03 06:14:00,
2013-07-03 02:49:00,65.0,64.0,29.99,ESE,113,0.0,3.0,98,0.01,,,0.34,,2013-07-03 06:49:00,
2013-07-03 03:06:00,65.0,64.0,29.98,ESE,114,0.0,3.0,98,0.01,,,0.30,,2013-07-03 07:06:00,
2013-07-03 03:15:00,65.0,64.0,29.97,East,99,0.0,2.0,97,0.01,,,0.30,,2013-07-03 07:15:00,
2013-07-03 03:27:00,65.0,64.0,29.97,East,99,0.0,2.0,97,0.01,,,0.30,,2013-07-03 07:27:00,
2013-07-03 03:38:00,65.0,64.0,29.97,ESE,106,0.0,3.0,98,0.00,,,0.30,,2013-07-03 07:38:00,
2013-07-03 03:47:00,65.0,64.0,29.97,ESE,111,0.0,2.0,98,0.00,,,0.30,,2013-07-03 07:47:00,
2013-07-03 03:57:00,65.0,64.0,29.97,ESE,111,0.0,2.0,98,0.00,,,0.30,,2013-07-03 07:57:00,
2013-07-03 04:09:00,65.0,64.0,29.97,ESE,115,1.0,4.0,98,0.00,,,0.28,,2013-07-03 08:09:00,
2013-07-03 04:16:00,65.0,64.0,29.97,ESE,107,0.0,4.0,98,0.00,,,0.28,,2013-07-03 08:16:00,
2013-07-03 04:25:00,65.0,64.0,29.97,ESE,107,0.0,4.0,98,0.00,,,0.28,,2013-07-03 08:25:00,
2013-07-03 04:37:00,65.0,64.0,29.98,SE,137,2.0,5.0,98,0.00,,,0.28,,2013-07-03 08:37:00,
2013-07-03 04:45:00,65.0,64.0,29.97,ESE,110,0.0,3.0,98,0.00,,,0.28,,2013-07-03 08:45:00,
2013-07-03 04:56:00,65.0,64.0,29.97,ESE,110,0.0,3.0,98,0.00,,,0.28,,2013-07-03 08:56:00,
2013-07-03 05:07:00,65.0,64.0,29.98,ESE,117,1.0,4.0,98,0.00,,,0.28,,2013-07-03 09:07:00,
2013-07-03 05:16:00,65.0,64.0,29.98,ESE,102,0.0,3.0,98,0.00,,,0.28,,2013-07-03 09:16:00,
2013-07-03 05:56:00,65.0,65.0,29.98,SE,125,0.0,3.0,99,0.00,,,0.28,,2013-07-03 09:56:00,
2013-07-03 06:05:00,65.0,65.0,29.99,SE,137,0.0,3.0,99,0.00,,,0.28,,2013-07-03 10:05:00,
2013-07-03 06:16:00,65.0,65.0,29.99,SE,137,0.0,3.0,99,0.00,,,0.28,,2013-07-03 10:16:00,
2013-07-03 06:28:00,65.0,65.0,29.99,ESE,103,0.0,3.0,99,0.00,,,0.28,,2013-07-03 10:28:00,
2013-07-03 06:45:00,65.0,65.0,30.00,East,90,0.0,2.0,99,0.00,,,0.28,,2013-07-03 10:45:00,
2013-07-03 06:55:00,65.0,65.0,30.00,East,90,0.0,2.0,99,0.00,,,0.28,,2013-07-03 10:55:00,
2013-07-03 07:16:00,65.0,65.0,30.00,East,90,0.0,3.0,99,0.00,,,0.27,,2013-07-03 11:16:00,
2013-07-03 07:43:00,65.0,65.0,30.02,WSW,241,0.0,2.0,99,0.00,,,0.27,,2013-07-03 11:43:00,
2013-07-03 07:53:00,65.0,65.0,30.02,WSW,241,0.0,2.0,99,0.00,,,0.27,,2013-07-03 11:53:00,
2013-07-03 08:25:00,65.0,65.0,30.02,SSE,147,0.0,3.0,99,0.00,,,0.27,,2013-07-03 12:25:00,
2013-07-03 08:37:00,65.0,65.0,30.02,SE,140,0.0,4.0,99,0.00,,,0.27,,2013-07-03 12:37:00,
2013-07-03 09:08:00,66.0,66.0,30.04,SE,135,0.0,4.0,99,0.00,,,0.27,,2013-07-03 13:08:00,
2013-07-03 09:17:00,66.0,66.0,30.04,SE,135,0.0,4.0,99,0.00,,,0.27,,2013-07-03 13:17:00,
2013-07-03 09:25:00,66.0,66.0,30.04,South,188,1.0,5.0,99,0.00,,,0.27,,2013-07-03 13:25:00,
2013-07-03 09:47:00,67.0,67.0,30.05,SE,146,0.0,5.0,99,0.00,,,0.27,,2013-07-03 13:47:00,
2013-07-03 09:54:00,67.0,67.0,30.05,SE,146,0.0,5.0,99,0.00,,,0.27,,2013-07-03 13:54:00,
2013-07-03 10:15:00,69.0,69.0,30.05,South,169,0.0,3.0,99,0.00,,,0.27,,2013-07-03 14:15:00,
2013-07-03 10:26:00,70.0,69.0,30.05,South,186,0.0,5.0,96,0.00,,,0.27,,2013-07-03 14:26:00,
2013-07-03 10:46:00,73.0,69.0,30.05,South,180,1.0,5.0,87,0.00,,,0.27,,2013-07-03 14:46:00,
2013-07-03 10:54:00,73.0,69.0,30.05,South,180,1.0,5.0,87,0.00,,,0.27,,2013-07-03 14:54:00,
2013-07-03 11:26:00,76.0,69.0,30.05,SSE,165,2.0,7.0,78,0.00,,,0.27,,2013-07-03 15:26:00,
2013-07-03 11:47:00,77.0,68.0,30.05,SW,217,3.0,8.0,74,0.00,,,0.27,,2013-07-03 15:47:00,
2013-07-03 11:55:00,77.0,68.0,30.05,SW,217,3.0,8.0,74,0.00,,,0.27,,2013-07-03 15:55:00,
2013-07-03 12:23:00,77.0,67.0,30.05,SSE,161,2.0,9.0,72,0.00,,,0.27,,2013-07-03 16:23:00,
2013-07-03 12:39:00,78.0,68.0,30.04,South,175,3.0,8.0,72,0.00,,,0.27,,2013-07-03 16:39:00,
2013-07-03 12:46:00,79.0,68.0,30.04,South,183,2.0,8.0,69,0.00,,,0.27,,2013-07-03 16:46:00,
2013-07-03 12:56:00,79.0,68.0,30.04,South,183,2.0,8.0,69,0.00,,,0.27,,2013-07-03 16:56:00,
2013-07-03 13:25:00,80.0,68.0,30.04,South,191,1.0,8.0,66,0.00,,,0.27,,2013-07-03 17:25:00,
2013-07-03 13:40:00,80.0,67.0,30.04,SW,233,3.0,9.0,65,0.00,,,0.27,,2013-07-03 17:40:00,
2013-07-03 13:47:00,80.0,67.0,30.04,SW,233,3.0,9.0,65,0.00,,,0.27,,2013-07-03 17:47:00,
2013-07-03 13:56:00,80.0,68.0,30.03,South,184,2.0,9.0,66,0.00,,,0.27,,2013-07-03 17:56:00,
2013-07-03 14:07:00,80.0,68.0,30.03,South,184,2.0,9.0,66,0.00,,,0.27,,2013-07-03 18:07:00,
2013-07-03 14:15:00,81.0,68.0,30.03,South,182,2.0,8.0,65,0.00,,,0.27,,2013-07-03 18:15:00,
2013-07-03 14:25:00,82.0,68.0,30.03,ESE,107,2.0,9.0,62,0.00,,,0.27,,2013-07-03 18:25:00,
2013-07-03 14:36:00,82.0,68.0,30.03,ESE,107,2.0,9.0,62,0.00,,,0.27,,2013-07-03 18:36:00,
2013-07-03 14:59:00,82.0,67.0,30.03,South,186,3.0,9.0,61,0.00,,,0.27,,2013-07-03 18:59:00,
2013-07-03 15:04:00,82.0,67.0,30.03,South,186,3.0,9.0,61,0.00,,,0.27,,2013-07-03 19:04:00,
2013-07-03 15:16:00,82.0,67.0,30.03,South,188,3.0,7.0,61,0.00,,,0.27,,2013-07-03 19:16:00,
2013-07-03 15:30:00,82.0,67.0,30.03,South,174,3.0,8.0,61,0.00,,,0.27,,2013-07-03 19:30:00,
2013-07-03 15:37:00,82.0,67.0,30.03,South,174,3.0,8.0,61,0.00,,,0.27,,2013-07-03 19:37:00,
2013-07-03 15:46:00,82.0,67.0,30.02,SE,124,2.0,7.0,61,0.00,,,0.27,,2013-07-03 19:46:00,
2013-07-03 16:04:00,83.0,67.0,30.02,SSW,194,3.0,7.0,58,0.00,,,0.27,,2013-07-03 20:04:00,
2013-07-03 16:14:00,83.0,67.0,30.01,WSW,241,3.0,7.0,59,0.00,,,0.27,,2013-07-03 20:14:00,
2013-07-03 16:25:00,83.0,67.0,30.01,SSE,165,1.0,8.0,59,0.00,,,0.27,,2013-07-03 20:25:00,
2013-07-03 16:37:00,83.0,67.0,30.01,WSW,248,2.0,9.0,59,0.00,,,0.27,,2013-07-03 20:37:00,
2013-07-03 16:45:00,83.0,67.0,30.01,WSW,248,2.0,9.0,59,0.00,,,0.27,,2013-07-03 20:45:00,
2013-07-03 16:56:00,83.0,67.0,30.01,South,188,3.0,9.0,59,0.00,,,0.27,,2013-07-03 20:56:00,
2013-07-03 17:06:00,83.0,67.0,30.01,South,188,3.0,9.0,59,0.00,,,0.27,,2013-07-03 21:06:00,
2013-07-03 17:13:00,81.0,66.0,30.01,SSW,202,2.0,8.0,61,0.00,,,0.27,,2013-07-03 21:13:00,
2013-07-03 17:27:00,80.0,66.0,30.01,South,190,0.0,7.0,63,0.00,,,0.27,,2013-07-03 21:27:00,
2013-07-03 17:44:00,81.0,67.0,30.01,SSW,196,3.0,6.0,62,0.00,,,0.27,,2013-07-03 21:44:00,
2013-07-03 17:55:00,80.0,65.0,30.01,SW,215,3.0,8.0,61,0.00,,,0.27,,2013-07-03 21:55:00,
2013-07-03 18:06:00,80.0,65.0,30.01,SW,215,3.0,8.0,61,0.00,,,0.27,,2013-07-03 22:06:00,
2013-07-03 18:26:00,79.0,67.0,30.00,WSW,239,1.0,6.0,66,0.00,,,0.27,,2013-07-03 22:26:00,
2013-07-03 18:37:00,79.0,67.0,30.00,WSW,239,1.0,6.0,66,0.00,,,0.27,,2013-07-03 22:37:00,
2013-07-03 18:45:00,80.0,68.0,30.00,WSW,243,0.0,4.0,66,0.00,,,0.27,,2013-07-03 22:45:00,
2013-07-03 18:57:00,79.0,68.0,30.00,SW,234,1.0,5.0,68,0.00,,,0.27,,2013-07-03 22:57:00,
2013-07-03 19:05:00,79.0,68.0,30.00,SW,234,1.0,5.0,68,0.00,,,0.27,,2013-07-03 23:05:00,
2013-07-03 19:14:00,79.0,68.0,29.99,WSW,238,0.0,3.0,69,0.00,,,0.27,,2013-07-03 23:14:00,
2013-07-03 19:39:00,78.0,67.0,29.99,SW,236,1.0,4.0,69,0.00,,,0.27,,2013-07-03 23:39:00,
2013-07-03 19:45:00,78.0,67.0,29.99,SW,236,1.0,4.0,69,0.00,,,0.27,,2013-07-03 23:45:00,
2013-07-03 19:56:00,78.0,69.0,30.00,WSW,254,0.0,3.0,73,0.00,,,0.27,,2013-07-03 23:56:00,
2013-07-03 20:04:00,77.0,68.0,30.00,WNW,298,0.0,3.0,75,0.00,,,0.02,,2013-07-04 00:04:00,
2013-07-03 20:16:00,77.0,68.0,30.00,WNW,298,0.0,3.0,75,0.00,,,0.02,,2013-07-04 00:16:00,
2013-07-03 20:25:00,77.0,68.0,30.01,WSW,252,0.0,3.0,75,0.00,,,0.02,,2013-07-04 00:25:00,
2013-07-03 20:37:00,77.0,68.0,30.01,WSW,252,0.0,3.0,75,0.00,,,0.02,,2013-07-04 00:37:00,
2013-07-03 20:57:00,75.0,68.0,30.01,South,175,0.0,4.0,78,0.00,,,0.02,,2013-07-04 00:57:00,
2013-07-03 21:04:00,74.0,67.0,30.01,SSE,167,0.0,2.0,80,0.00,,,0.02,,2013-07-04 01:04:00,
2013-07-03 21:16:00,74.0,67.0,30.01,SSE,167,0.0,2.0,80,0.00,,,0.02,,2013-07-04 01:16:00,
2013-07-03 21:56:00,73.0,68.0,30.02,SSE,167,0.0,1.0,83,0.00,,,0.02,,2013-07-04 01:56:00,
2013-07-03 22:15:00,73.0,68.0,30.02,SSE,167,0.0,2.0,85,0.00,,,0.01,,2013-07-04 02:15:00,
2013-07-03 22:39:00,73.0,69.0,30.02,SSE,167,0.0,1.0,86,0.00,,,0.01,,2013-07-04 02:39:00,
2013-07-03 22:57:00,72.0,68.0,30.03,SSE,167,0.0,1.0,87,0.00,,,0.01,,2013-07-04 02:57:00,
2013-07-03 23:05:00,72.0,68.0,30.03,SSE,167,0.0,1.0,87,0.00,,,0.01,,2013-07-04 03:05:00,
2013-07-03 23:14:00,72.0,68.0,30.03,SSE,167,0.0,1.0,86,0.00,,,0.01,,2013-07-04 03:14:00,
2013-07-03 23:27:00,72.0,68.0,30.03,NW,311,0.0,1.0,87,0.00,,,0.01,,2013-07-04 03:27:00,
2013-07-03 23:35:00,72.0,68.0,30.03,NW,311,0.0,1.0,87,0.00,,,0.01,,2013-07-04 03:35:00,
2013-07-03 23:46:00,71.0,67.0,30.03,NW,311,0.0,1.0,87,0.00,,,0.01,,2013-07-04 03:46:00,
2013-07-03 23:57:00,71.0,67.0,30.03,NW,311,0.0,0.0,88,0.00,,,0.01,,2013-07-04 03:57:00,